Regional Weather Roundup
Issued by NWS

Home | Current Version | Previous Version | Text Only | Print | Product List | Glossary On
Versions: 1 2 3 4 5 6 7 8 9 10 11 12 13 14 15 16 17 18 19 20 21 22 23 24 25 26 27 28 29 30 31 32 33 34 35 36 37 38 39 40 41 42 43 44 45 46 47 48 49 50
000
ASUS43 KLSX 271357
RWRMO

WEATHER SUMMARY FOR MISSOURI
NATIONAL WEATHER SERVICE SPRINGFIELD MO
900 AM CDT MON MAR 27 2017

NOTE: "FAIR" INDICATES FEW OR NO CLOUDS BELOW 12,000 FEET WITH NO
       SIGNIFICANT WEATHER AND/OR OBSTRUCTIONS TO VISIBILITY.
       CURRENT SKY AND/OR WEATHER CONDITIONS ARE NOT AVAILABLE FOR
       CHILLICOTHE AND FARMINGTON.

MOZ001>031-035>038-043-044-053-054-271500-
...NORTHERN AND WESTERN MISSOURI...

CITY           SKY/WX    TMP DP  RH WIND       PRES   REMARKS
KANSAS CTY INT LGT RAIN  46  46 100 N14       29.89S
LEE`S SUMMIT   LGT RAIN  47  46  97 N13       29.88R FOG
ST JOSEPH      LGT RAIN  47  47 100 NE8       29.91S
CHILLICOTHE      N/A     47  46  97 NE10      29.90S

$$
MOZ066>068-077>081-088>096-101>105-271500-
...SOUTHWEST MISSOURI...

CITY           SKY/WX    TMP DP  RH WIND       PRES   REMARKS
SPRINGFIELD    LGT RAIN  56  54  93 S13       29.78S
JOPLIN         CLOUDY    53  53 100 N7        29.84R
BRANSON        CLOUDY    54  54 100 SE7       29.83R FOG

$$
MOZ032>034-039>042-045>050-055>058-069>072-271500-
...CENTRAL MISSOURI...

CITY           SKY/WX    TMP DP  RH WIND       PRES   REMARKS
COLUMBIA       NOT AVBL
JEFFERSON CITY LGT RAIN  54  51  90 E6        29.83S FOG
ROLLA          CLOUDY    54  54 100 SE8       29.82R
SEDALIA        LGT RAIN  50  49  96 N7        29.85R FOG
WARRENSBURG    LGT RAIN  46  45  93 N8        29.86R

$$
MOZ051-052-059>065-271500-
...EAST CENTRAL MISSOURI...

CITY           SKY/WX    TMP DP  RH WIND       PRES   REMARKS
ST LOUIS INTL  RAIN      53  50  89 N6        29.87R FOG

$$
MOZ072>076-082>087-097>100-106>115-271500-
...SOUTH CENTRAL AND SOUTHEAST MISSOURI...

CITY           SKY/WX    TMP DP  RH WIND       PRES   REMARKS
CAPE GIRARDEAU CLOUDY    58  55  90 S13       29.85R
POPLAR BLUFF   CLOUDY    58  57  97 W10       29.88R
WEST PLAINS    LGT RAIN  55  54  96 CALM      29.85F FOG

$$


USA.gov is the U.S. government's official web portal to all federal, state and local government web resources and services.